Location: Domachevo
(51.7500°N, 23.6000°E)
Time: 19:38:34
(UTC+02:00)

ISS - Visible Passes

Search period start: 17 January 2019 00:00
Search period end: 27 January 2019 00:00
Orbit: 404 x 407 km, 51.6° (Epoch: 18 January)

Date Brightness Start Highest point End Pass type
(mag) Time Alt. Az. Time Alt. Az. Time Alt. Az.
23 Jan -1.1 19:37:33 10° SSW 19:38:12 14° SSW 19:38:12 14° SSW visible
24 Jan -2.0 18:46:14 10° SSW 18:48:36 19° SE 18:48:36 19° SE visible
25 Jan -1.4 17:55:27 10° SSE 17:56:57 13° SE 17:58:26 10° ESE visible
25 Jan -2.2 19:29:41 10° SW 19:31:37 30° SSW 19:31:37 30° SSW visible
26 Jan -2.8 18:38:00 10° SW 18:40:59 32° SSE 18:41:53 27° ESE visible
26 Jan -0.7 20:13:59 10° WSW 20:14:34 14° WSW 20:14:34 14° WSW visible
